Wind_Speed
25 28 27 26 22 21 20 19 18 15 14 13 11 9 10 10 10 10 10 9 9 9 10 12 11 9 7 5 4 2 2 5 6 8 9 10 10 9 8 7 7 7 7 8 11 13 17 19 24
19 24 28 27 25 20 21 20 19 16 14 12 10 10 10 11 12 11 10 9 9 9 9 9 7 5 4 3 1 3 6 8 10 12 13 13 12 12 11 10 10 11 15 18 22 27 28 27 26
17 19 24 26 25 23 20 20 19 17 14 12 11 10 10 11 11 11 10 9 8 8 8 5 4 2 2 2 4 7 10 13 14 15 15 15 14 14 13 13 15 22 27 28 28 29 29 31 32
17 19 20 25 26 23 21 20 19 17 14 12 11 10 11 12 11 10 9 8 6 6 5 4 3 3 3 4 7 10 13 14 16 16 16 16 14 15 20 27 29 28 28 29 32 34 33 32 31
18 19 21 24 25 22 21 20 18 16 14 12 10 9 10 11 12 10 8 7 6 5 5 3 4 4 6 7 8 10 12 13 14 15 16 19 24 27 28 29 29 30 31 33 34 33 31 30 29
20 20 22 22 27 21 21 20 18 16 14 11 10 9 10 11 11 10 9 7 5 4 4 4 4 5 5 7 9 10 11 12 14 18 22 23 25 28 29 30 32 32 32 31 31 30 29 27 27
21 23 24 24 30 23 21 19 18 17 14 12 10 10 11 12 12 12 10 9 8 7 6 5 5 6 7 8 10 12 14 16 18 21 22 23 25 27 31 31 31 30 29 29 27 26 25 23 23
21 24 25 28 31 27 22 20 18 17 15 13 10 10 12 13 14 13 11 11 10 9 8 7 6 6 6 8 10 12 14 17 21 21 23 26 30 30 30 28 27 27 26 24 23 22 21 21 21
14 16 23 27 29 30 24 22 20 18 15 13 10 10 12 14 16 15 12 12 11 10 9 7 6 6 6 7 9 12 14 18 21 24 26 30 29 27 26 25 23 22 21 20 20 19 19 20 19
7 11 21 25 28 30 27 23 21 19 16 13 10 11 14 16 17 15 14 13 12 11 8 7 7 6 6 8 10 13 15 17 21 27 28 28 25 23 22 20 19 18 18 17 16 16 17 17 18
3 10 17 20 25 28 28 26 23 20 17 13 10 11 14 17 18 16 16 14 11 10 9 8 7 7 8 9 10 12 13 17 26 26 27 24 22 20 18 17 16 16 15 14 13 14 15 16 16
4 9 14 17 21 25 27 28 26 21 20 15 12 12 15 17 18 18 18 16 14 12 10 10 10 10 10 9 10 12 14 24 26 25 22 20 18 17 15 14 13 12 11 11 12 13 14 14 14
5 7 13 16 19 25 29 31 30 21 22 17 16 14 16 18 18 18 16 14 14 13 13 12 12 10 9 9 15 16 21 23 22 20 18 17 16 14 12 11 10 11 11 11 11 11 11 11 11
6 5 10 14 19 23 29 33 29 23 26 20 18 15 16 18 19 19 19 19 17 15 14 12 11 10 8 13 17 20 21 20 19 17 15 14 13 12 11 10 11 11 10 10 9 8 8 9 9
7 6 5 9 15 21 31 33 27 34 27 18 19 17 16 19 18 20 21 19 18 16 13 11 10 9 9 14 20 20 19 18 16 14 13 12 12 11 10 9 10 10 9 8 8 7 8 9 9
6 6 7 8 13 19 21 26 36 36 29 24 23 19 17 19 22 22 20 19 17 15 13 10 8 10 12 17 19 19 17 16 14 13 12 12 10 10 10 9 8 7 7 8 8 9 10 10 7
4 5 6 7 6 12 15 24 26 31 32 28 25 21 19 20 22 20 20 20 17 13 12 10 9 11 16 18 18 18 16 14 14 13 13 12 14 15 15 15 15 14 14 14 14 13 13 11 10
4 4 4 5 7 9 9 17 18 23 27 27 25 20 19 21 21 22 23 22 17 13 11 10 11 14 17 19 18 17 16 14 14 14 14 17 17 17 16 13 12 14 16 16 15 13 10 9 10
6 4 2 1 4 6 6 13 14 22 21 23 21 20 21 21 23 24 23 19 15 11 9 9 13 15 18 19 19 18 16 15 16 16 18 18 18 16 10 12 12 14 15 13 12 10 8 7 6
6 5 3 1 2 5 6 9 8 11 15 19 21 21 23 24 23 22 21 17 15 13 9 10 15 17 19 20 20 19 17 18 17 19 19 18 16 12 11 11 12 11 10 8 6 5 4 3 4
8 6 5 4 1 2 3 6 8 10 14 17 20 22 24 24 23 23 21 18 18 15 13 14 16 17 18 20 20 21 20 21 21 20 19 16 15 12 11 11 9 8 6 5 3 1 1 3 6
13 10 9 8 6 6 3 8 8 11 14 17 20 24 25 24 25 24 22 21 20 19 14 15 17 20 22 23 23 22 24 24 24 20 18 16 14 12 11 10 8 7 6 5 5 4 3 4 7
14 15 13 11 10 8 8 10 12 13 15 18 20 23 25 26 27 24 24 25 24 17 16 17 19 21 21 23 26 24 25 27 24 21 18 16 14 13 12 11 10 10 9 9 9 8 8 8 9
14 15 15 15 13 11 12 13 14 16 16 20 22 25 27 28 29 28 27 27 25 18 14 15 18 21 21 22 25 26 28 28 25 22 19 17 14 13 13 13 13 13 13 13 13 13 12 13 13
14 15 15 15 14 13 12 15 15 16 19 20 24 26 28 30 30 29 28 28 27 22 17 18 20 21 22 22 23 27 27 27 26 23 19 17 16 15 15 15 14 15 16 16 16 16 16 16 16
15 15 17 16 13 12 13 15 16 19 20 22 25 27 29 30 32 32 31 31 30 24 20 21 22 23 23 24 26 29 28 27 26 24 21 20 19 18 18 18 17 18 18 18 19 19 19 19 20
17 16 15 17 16 12 11 16 18 19 21 22 25 29 31 32 33 34 34 33 33 29 24 23 25 26 27 27 29 31 29 29 28 27 25 23 22 22 22 21 21 21 22 22 22 22 21 22 23
20 19 19 17 17 14 10 13 17 19 22 23 26 29 33 34 35 36 37 36 36 31 27 29 28 27 30 31 31 32 32 31 32 31 28 28 27 27 26 27 26 25 26 26 26 26 25 25 28
23 21 22 22 20 19 14 15 17 19 22 24 26 29 32 36 37 38 39 39 39 37 33 32 34 34 34 34 35 35 34 34 35 35 34 33 33 33 31 32 32 29 30 30 30 30 30 30 32
27 26 26 26 25 24 20 8 16 17 19 22 27 31 33 35 38 40 41 43 43 43 41 38 37 39 40 39 39 39 40 39 39 39 40 39 38 38 37 37 37 35 34 35 34 34 34 35 35
Wind_Direction
242 238 236 232 235 232 235 233 239 237 240 242 242 254 263 269 272 278 288 286 287 293 302 307 308 317 327 323 312 289 182 180 180 181 183 191 186 185 179 165 147 141 125 109 99 102 99 96 95
245 241 235 230 228 232 229 231 230 232 236 234 233 242 261 267 277 280 282 283 285 287 287 286 300 310 320 310 264 168 155 157 155 160 164 172 171 168 165 156 139 118 111 113 111 106 104 100 97
251 246 237 226 222 227 227 226 225 227 231 226 228 243 255 258 262 269 269 271 276 277 277 282 278 275 271 236 173 160 153 151 152 156 156 156 157 150 141 132 125 120 117 114 110 106 104 102 99
254 247 240 220 216 220 221 221 221 223 226 222 228 244 253 252 252 253 253 255 256 263 262 253 248 231 206 191 170 163 158 156 156 155 153 150 149 141 129 124 121 119 116 112 109 107 103 98 95
259 248 239 218 212 216 217 218 216 218 221 220 230 247 249 245 239 238 232 224 224 238 243 217 198 195 193 181 173 166 164 165 160 156 151 143 135 130 128 125 123 121 118 116 108 102 99 96 93
256 251 238 216 209 211 215 215 211 213 218 218 228 235 245 242 232 216 209 204 209 210 174 152 141 147 152 165 169 165 163 159 153 147 142 138 134 132 130 129 126 122 116 110 105 100 98 94 90
257 250 235 214 207 208 214 213 209 210 216 215 224 228 233 231 224 210 199 195 185 170 161 151 142 136 132 136 143 149 151 153 148 144 142 138 139 139 134 131 127 121 117 110 104 101 99 94 90
264 250 228 213 205 208 212 210 206 206 210 213 217 220 227 226 218 205 202 188 177 169 160 153 147 137 135 135 138 141 145 146 147 145 141 145 147 143 141 137 130 124 120 116 111 107 101 94 89
275 243 216 207 202 205 209 207 205 205 206 211 215 211 224 223 217 207 202 192 177 166 161 159 154 151 145 148 145 146 148 148 147 144 149 151 148 145 142 135 131 127 120 118 113 109 103 97 91
279 212 202 202 201 204 206 206 203 205 205 209 220 211 217 222 212 210 204 191 179 172 172 167 167 166 162 156 153 148 142 138 143 152 154 151 150 146 144 139 135 131 125 120 117 114 109 102 94
269 200 199 204 203 205 205 205 201 205 210 212 226 218 215 217 210 207 194 184 183 184 181 178 178 174 164 157 149 137 134 144 155 161 158 155 153 151 150 147 143 139 134 132 131 125 114 104 94
263 215 208 208 206 205 206 205 202 203 217 216 228 227 216 213 209 206 193 189 188 188 188 180 176 165 154 140 136 140 153 159 160 163 164 159 156 156 156 153 149 146 144 144 139 132 123 113 104
278 234 221 219 207 204 207 206 205 209 222 218 226 232 217 212 209 201 192 189 193 196 186 177 164 154 139 144 162 168 168 171 173 172 168 165 163 160 162 160 154 156 161 162 155 141 132 117 113
299 260 229 218 216 208 207 212 208 221 226 215 228 238 221 211 209 196 193 197 197 193 182 169 153 144 153 168 181 183 179 177 173 172 171 168 167 168 169 169 176 178 181 182 173 163 148 132 123
296 272 226 215 220 215 213 215 214 226 215 211 232 236 223 210 202 197 201 198 192 185 179 155 142 160 184 196 191 189 187 184 182 181 180 179 176 171 173 185 190 191 192 186 171 156 131 121 121
302 276 245 222 224 224 220 216 218 226 227 228 233 236 225 207 201 202 202 198 195 182 158 150 155 183 204 198 199 196 192 190 192 193 190 181 173 171 162 156 151 152 161 151 139 131 122 118 103
300 289 256 227 222 223 222 222 216 219 225 232 233 234 221 205 203 204 208 202 192 163 153 157 183 197 206 209 206 205 204 203 202 198 185 175 160 152 137 123 116 114 116 121 119 115 109 100 86
358 314 277 234 217 222 212 229 212 221 224 228 228 230 216 199 203 207 208 201 183 165 156 173 197 210 215 215 214 214 217 216 208 192 178 165 160 154 146 138 122 114 109 109 109 108 99 89 77
7 18 20 209 224 228 217 232 232 222 221 220 225 216 208 202 208 209 208 199 183 169 179 194 210 216 220 222 222 224 227 221 200 188 173 167 163 161 156 142 136 128 120 118 116 109 95 75 60
330 337 354 35 181 197 197 233 229 220 216 216 211 204 201 205 213 215 214 201 195 193 201 221 228 226 227 227 228 230 228 212 197 183 179 177 178 176 167 158 147 135 128 124 116 104 82 52 35
292 299 298 294 270 242 219 235 208 199 205 200 201 201 202 208 217 217 216 209 202 202 214 230 236 234 230 232 231 230 221 206 190 186 186 190 188 186 183 173 166 158 156 159 162 164 22 350 346
279 276 276 278 267 255 222 247 224 212 212 208 206 203 206 210 219 218 215 213 215 216 223 236 240 243 239 233 232 230 213 202 192 190 193 194 196 199 203 203 204 207 210 225 233 256 288 315 313
273 272 271 267 267 257 248 221 247 227 222 218 211 209 212 216 222 217 211 213 215 218 227 235 244 248 246 236 232 227 209 200 195 198 201 202 208 215 222 233 240 244 247 251 261 270 281 286 291
289 279 271 270 265 257 248 243 227 240 228 222 216 215 218 221 224 223 217 221 221 222 231 236 239 242 243 236 231 215 208 202 203 208 210 214 220 230 238 247 253 257 258 261 265 271 276 280 286
289 284 283 273 270 263 249 241 239 233 231 229 223 220 222 226 229 228 220 222 224 224 224 230 235 238 235 228 212 206 207 205 212 216 218 223 231 240 249 255 260 264 265 265 267 270 272 276 283
303 288 282 281 276 262 254 247 237 230 227 230 228 226 225 228 231 232 226 224 225 221 220 229 232 231 224 213 210 207 208 213 221 222 224 230 240 249 256 261 265 267 268 268 268 269 272 275 282
291 299 294 282 278 273 258 248 240 231 227 226 230 230 229 230 233 235 232 225 224 220 216 224 227 223 215 215 213 212 216 222 227 228 230 237 246 253 259 266 270 272 271 270 272 272 274 277 281
281 285 287 288 283 271 258 249 242 241 238 233 230 234 234 233 234 236 237 228 224 217 219 227 227 226 222 221 220 222 226 226 231 233 236 243 249 255 259 265 269 273 275 273 274 274 274 277 281
272 272 275 278 281 280 262 256 255 248 244 241 238 237 238 237 236 237 237 235 229 224 221 227 232 232 232 229 230 231 234 236 238 241 243 246 252 256 260 264 269 272 274 273 272 273 274 276 280
268 268 268 271 273 276 279 258 266 256 250 247 244 241 240 240 239 238 238 238 235 232 228 224 229 233 234 236 237 238 239 240 242 244 247 250 253 256 260 263 267 270 272 272 272 273 275 278 282
Height
5874 5876 5879 5883 5887 5886 5887 5888 5888 5889 5890 5891 5892 5892 5892 5892 5892 5893 5890 5889 5889 5888 5887 5886 5885 5884 5884 5884 5884 5883 5883 5884 5883 5884 5883 5884 5883 5884 5884 5884 5883 5884 5884 5885 5885 5887 5885 5885 5884
5870 5871 5875 5878 5882 5883 5884 5884 5885 5887 5888 5889 5889 5890 5890 5891 5890 5889 5889 5888 5887 5887 5887 5886 5885 5884 5884 5883 5883 5883 5883 5884 5883 5884 5883 5884 5884 5884 5885 5885 5885 5886 5886 5887 5888 5887 5887 5887 5887
5867 5868 5870 5873 5877 5879 5880 5881 5882 5884 5885 5887 5888 5888 5889 5889 5888 5888 5887 5887 5886 5886 5885 5884 5884 5884 5884 5883 5883 5883 5884 5884 5883 5884 5884 5884 5884 5884 5885 5886 5886 5888 5889 5890 5889 5889 5890 5890 5891
5864 5865 5867 5869 5873 5875 5877 5878 5879 5881 5883 5885 5885 5886 5887 5887 5887 5886 5886 5885 5885 5885 5884 5884 5884 5883 5883 5884 5884 5884 5884 5884 5884 5884 5884 5885 5885 5885 5886 5888 5888 5890 5891 5891 5892 5892 5892 5892 5892
5860 5861 5862 5865 5869 5872 5873 5875 5877 5879 5881 5883 5883 5884 5884 5885 5885 5885 5885 5885 5885 5885 5884 5884 5884 5884 5884 5884 5884 5884 5884 5885 5885 5885 5886 5886 5887 5888 5889 5890 5891 5893 5894 5895 5895 5894 5895 5895 5895
5856 5857 5859 5862 5865 5869 5871 5873 5875 5877 5879 5880 5881 5882 5883 5883 5884 5884 5885 5885 5885 5885 5885 5884 5884 5885 5884 5884 5885 5885 5885 5885 5886 5887 5888 5889 5890 5891 5892 5893 5895 5896 5896 5897 5897 5896 5896 5898 5898
5851 5851 5853 5857 5862 5866 5868 5870 5873 5875 5877 5879 5879 5880 5882 5882 5882 5883 5884 5884 5885 5885 5885 5886 5886 5886 5886 5885 5886 5886 5886 5887 5888 5889 5891 5892 5893 5894 5895 5896 5897 5898 5898 5899 5899 5899 5899 5899 5899
5845 5845 5848 5853 5857 5862 5865 5868 5871 5873 5875 5876 5877 5878 5880 5881 5881 5882 5883 5883 5885 5885 5886 5886 5887 5887 5887 5887 5887 5887 5888 5888 5890 5891 5892 5894 5896 5897 5898 5898 5899 5899 5900 5901 5901 5901 5900 5901 5901
5839 5840 5843 5849 5854 5858 5862 5866 5869 5871 5873 5874 5875 5877 5878 5880 5881 5881 5882 5883 5884 5885 5886 5887 5888 5888 5888 5888 5888 5889 5889 5890 5892 5893 5895 5897 5898 5899 5899 5900 5901 5901 5902 5902 5902 5902 5901 5901 5901
5837 5837 5841 5846 5850 5854 5859 5863 5866 5869 5871 5872 5873 5875 5876 5877 5880 5881 5882 5883 5884 5885 5886 5887 5888 5888 5889 5889 5890 5890 5891 5892 5893 5896 5897 5898 5899 5900 5900 5901 5902 5903 5903 5903 5903 5903 5902 5902 5902
5836 5837 5841 5844 5848 5852 5856 5860 5864 5866 5868 5870 5870 5872 5874 5876 5878 5880 5881 5883 5884 5885 5886 5887 5888 5888 5889 5890 5891 5892 5893 5894 5896 5897 5899 5899 5900 5900 5901 5902 5903 5903 5903 5903 5903 5903 5902 5902 5902
5837 5838 5840 5843 5846 5850 5854 5858 5861 5863 5864 5867 5868 5870 5872 5874 5876 5878 5880 5882 5883 5885 5887 5887 5888 5889 5890 5891 5892 5893 5894 5896 5898 5899 5899 5900 5901 5901 5902 5902 5903 5903 5903 5903 5903 5902 5902 5902 5902
5837 5837 5839 5841 5844 5847 5851 5854 5856 5861 5862 5864 5866 5867 5870 5872 5875 5877 5880 5882 5883 5885 5887 5888 5888 5889 5890 5892 5893 5895 5896 5898 5899 5900 5900 5901 5901 5901 5902 5902 5902 5902 5902 5902 5902 5902 5902 5902 5902
5837 5836 5837 5839 5842 5845 5849 5851 5856 5860 5859 5861 5864 5866 5868 5870 5873 5877 5879 5880 5882 5884 5885 5887 5888 5889 5890 5893 5895 5896 5897 5898 5899 5900 5901 5901 5901 5901 5901 5901 5901 5901 5901 5901 5901 5901 5901 5901 5901
5836 5836 5836 5837 5838 5842 5844 5849 5855 5851 5856 5860 5862 5863 5866 5868 5872 5875 5877 5880 5882 5883 5884 5885 5887 5889 5891 5893 5895 5896 5897 5898 5899 5900 5900 5900 5900 5900 5901 5901 5900 5900 5900 5900 5899 5900 5900 5900 5900
5836 5836 5836 5836 5836 5838 5841 5846 5847 5851 5855 5857 5859 5861 5863 5867 5869 5872 5876 5878 5880 5881 5882 5884 5887 5889 5891 5893 5895 5896 5897 5898 5899 5899 5899 5899 5900 5900 5900 5900 5899 5899 5898 5898 5899 5899 5899 5900 5900
5836 5836 5836 5836 5836 5836 5839 5840 5844 5847 5851 5854 5856 5859 5861 5864 5867 5871 5874 5876 5878 5879 5881 5884 5887 5889 5891 5893 5894 5895 5896 5897 5898 5898 5898 5899 5899 5900 5901 5900 5899 5899 5898 5898 5898 5899 5899 5899 5898
5837 5836 5835 5836 5837 5837 5839 5839 5843 5845 5848 5851 5854 5857 5859 5863 5866 5869 5871 5874 5876 5878 5881 5884 5886 5889 5890 5892 5893 5894 5895 5896 5896 5896 5897 5898 5899 5900 5900 5900 5900 5899 5899 5899 5899 5899 5899 5898 5897
5838 5837 5836 5835 5836 5836 5838 5839 5840 5841 5846 5848 5852 5855 5857 5861 5864 5867 5870 5872 5874 5877 5879 5882 5885 5887 5889 5890 5891 5892 5893 5893 5894 5895 5896 5898 5899 5900 5900 5900 5899 5899 5899 5899 5899 5898 5898 5897 5897
5839 5838 5837 5837 5837 5838 5838 5838 5840 5841 5842 5845 5848 5852 5855 5858 5862 5866 5868 5871 5873 5875 5877 5880 5882 5885 5886 5887 5888 5889 5890 5891 5893 5894 5895 5897 5898 5899 5899 5899 5898 5898 5898 5898 5897 5897 5896 5896 5895
5838 5838 5838 5838 5837 5837 5838 5837 5838 5839 5840 5842 5845 5849 5852 5856 5859 5863 5866 5868 5869 5872 5874 5877 5879 5881 5883 5884 5885 5886 5887 5889 5891 5892 5894 5895 5896 5897 5897 5897 5897 5897 5896 5896 5896 5895 5894 5893 5891
5837 5837 5837 5837 5837 5837 5838 5837 5837 5838 5839 5841 5843 5846 5850 5853 5856 5859 5862 5865 5867 5868 5871 5873 5875 5876 5878 5880 5882 5883 5884 5887 5889 5891 5892 5893 5894 5895 5895 5895 5895 5895 5895 5894 5894 5893 5891 5889 5888
5835 5834 5834 5835 5835 5836 5837 5836 5835 5836 5837 5839 5842 5845 5848 5851 5853 5856 5859 5861 5862 5864 5867 5868 5870 5872 5874 5876 5877 5879 5882 5884 5886 5888 5890 5891 5892 5893 5893 5893 5893 5892 5891 5891 5891 5889 5888 5887 5885
5832 5831 5831 5831 5832 5833 5833 5834 5833 5833 5834 5836 5838 5841 5843 5846 5848 5851 5854 5857 5859 5860 5863 5865 5866 5867 5869 5871 5873 5875 5878 5881 5883 5885 5886 5888 5889 5889 5890 5890 5889 5889 5888 5887 5886 5885 5884 5883 5881
5828 5828 5828 5828 5828 5829 5829 5829 5830 5830 5831 5833 5834 5837 5838 5841 5844 5847 5850 5853 5854 5857 5858 5860 5861 5863 5864 5866 5869 5872 5875 5878 5879 5881 5882 5884 5885 5885 5885 5885 5885 5884 5883 5883 5881 5880 5879 5878 5876
5825 5825 5824 5823 5824 5826 5825 5824 5824 5826 5827 5828 5830 5832 5835 5837 5839 5842 5845 5847 5849 5851 5853 5856 5857 5858 5860 5862 5865 5867 5871 5874 5875 5877 5878 5879 5880 5880 5881 5881 5880 5879 5878 5877 5876 5875 5874 5872 5870
5822 5821 5821 5819 5820 5821 5822 5820 5820 5820 5822 5824 5824 5825 5828 5830 5833 5836 5838 5841 5843 5845 5847 5850 5852 5854 5856 5858 5860 5863 5866 5868 5870 5872 5873 5874 5874 5875 5875 5875 5874 5873 5872 5871 5871 5869 5867 5866 5864
5817 5818 5816 5815 5815 5816 5817 5815 5816 5816 5817 5818 5819 5820 5820 5823 5826 5828 5831 5834 5837 5838 5841 5844 5847 5849 5851 5853 5855 5858 5860 5862 5863 5865 5867 5867 5867 5868 5868 5868 5868 5867 5866 5865 5863 5862 5860 5859 5856
5812 5811 5811 5810 5810 5809 5812 5813 5812 5812 5812 5812 5812 5812 5814 5816 5818 5821 5824 5827 5829 5831 5834 5837 5840 5843 5845 5847 5849 5852 5854 5856 5857 5858 5859 5860 5860 5861 5861 5860 5860 5860 5858 5857 5856 5854 5852 5851 5849
5804 5804 5803 5804 5805 5804 5805 5811 5807 5807 5806 5805 5804 5803 5806 5808 5810 5813 5816 5819 5821 5823 5826 5828 5831 5834 5837 5839 5841 5843 5845 5847 5849 5850 5851 5851 5852 5852 5852 5852 5852 5851 5850 5849 5847 5846 5844 5842 5840